NWS644 LCLK-UUEE

Flight info

Callsign NWS644
Flight time 3h 24m
Altitude 36000
Route RUDER M13 BAPAX L620 VESAR UL619 EVKIT/N0443F350 UT284 SIV/N0449F360 UW72 CRM/N0447F370 UG901 BALUM/K0826F370 G901 INDIM/K0824F360 G901 LEKPI L91 KL/K0820F380 L91 KANON T748 PEPOR T611 TUKMO N50 OLOPI OLOPI3G
Aircraft B752/M-SDE2E3FGHIJ3J4J7RWXY/LB1

Departure

Time 2026-05-06 12:56
Airport Larnaca International Airport (LCLK)

Arrival

Time 2026-05-06 16:21
Airport Sheremetyevo International Airport (UUEE)
Time Latitude Longitude Altitude Speed Heading
2026-05-06 12:25 34.86626 33.60864 38 ft 0 kts 223°
2026-05-06 12:44 34.86636 33.60875 37 ft 2 kts 223°
2026-05-06 12:44 34.86647 33.60887 37 ft 2 kts 223°
2026-05-06 12:45 34.86658 33.60900 37 ft 2 kts 223°
2026-05-06 12:45 34.86669 33.60912 37 ft 2 kts 223°
2026-05-06 12:45 34.86689 33.60929 36 ft 2 kts 190°
2026-05-06 12:46 34.86704 33.60928 37 ft 2 kts 162°
2026-05-06 12:46 34.86715 33.60921 37 ft 0 kts 138°
2026-05-06 12:46 34.86719 33.60916 37 ft 0 kts 135°
2026-05-06 12:46 34.86720 33.60915 37 ft 0 kts 135°
2026-05-06 12:49 34.86719 33.60916 37 ft 0 kts 135°
2026-05-06 12:49 34.86718 33.60917 37 ft 0 kts 135°
2026-05-06 12:50 34.86714 33.60922 37 ft 4 kts 135°
2026-05-06 12:50 34.86666 33.60952 36 ft 10 kts 156°
2026-05-06 12:50 34.86658 33.61023 34 ft 5 kts 69°
2026-05-06 12:51 34.86648 33.61100 32 ft 8 kts 105°
2026-05-06 12:51 34.86688 33.61191 30 ft 17 kts 47°
2026-05-06 12:51 34.86797 33.61327 27 ft 26 kts 45°
2026-05-06 12:51 34.86950 33.61519 22 ft 35 kts 44°
2026-05-06 12:52 34.87135 33.61740 18 ft 37 kts 46°
2026-05-06 12:52 34.87314 33.61966 16 ft 36 kts 43°
2026-05-06 12:52 34.87490 33.62178 16 ft 35 kts 47°
2026-05-06 12:52 34.87658 33.62385 17 ft 33 kts 46°
2026-05-06 12:53 34.87818 33.62577 19 ft 31 kts 45°
2026-05-06 12:53 34.87967 33.62760 21 ft 29 kts 46°
2026-05-06 12:53 34.88108 33.62931 22 ft 28 kts 45°
2026-05-06 12:53 34.88242 33.63098 22 ft 27 kts 46°
2026-05-06 12:54 34.88371 33.63260 22 ft 26 kts 46°
2026-05-06 12:54 34.88431 33.63337 21 ft 7 kts 56°
2026-05-06 12:54 34.88433 33.63389 21 ft 6 kts 105°
2026-05-06 12:54 34.88412 33.63434 21 ft 6 kts 125°
2026-05-06 12:55 34.88385 33.63479 21 ft 6 kts 128°
2026-05-06 12:55 34.88350 33.63518 21 ft 8 kts 149°
2026-05-06 12:55 34.88287 33.63511 20 ft 11 kts 219°
2026-05-06 12:55 34.88208 33.63415 21 ft 30 kts 225°
2026-05-06 12:56 34.87899 33.63039 21 ft 95 kts 224°
2026-05-06 12:56 34.87278 33.62276 16 ft 157 kts 226°
2026-05-06 12:56 34.86450 33.61239 456 ft 177 kts 224°
2026-05-06 12:56 34.85554 33.60167 1231 ft 186 kts 222°
2026-05-06 12:57 34.84594 33.59018 1509 ft 207 kts 224°
2026-05-06 12:57 34.83540 33.57723 1860 ft 225 kts 224°
2026-05-06 12:57 34.82343 33.56378 2263 ft 241 kts 211°
2026-05-06 12:57 34.80698 33.55714 2584 ft 260 kts 181°
2026-05-06 12:58 34.78928 33.56182 3126 ft 269 kts 149°
2026-05-06 12:58 34.77521 33.57612 3960 ft 267 kts 133°
2026-05-06 12:58 34.76190 33.59215 4720 ft 271 kts 136°
2026-05-06 12:58 34.74808 33.60758 5500 ft 274 kts 137°
2026-05-06 12:59 34.73389 33.62306 6271 ft 278 kts 138°
2026-05-06 12:59 34.71941 33.63860 7029 ft 282 kts 138°
2026-05-06 12:59 34.70444 33.65451 7739 ft 287 kts 139°
2026-05-06 12:59 34.68940 33.67042 8500 ft 290 kts 139°
2026-05-06 13:00 34.67410 33.68655 9216 ft 295 kts 139°
2026-05-06 13:00 34.65844 33.70301 9939 ft 300 kts 139°
2026-05-06 13:00 34.64336 33.72076 10534 ft 309 kts 126°
2026-05-06 13:00 34.63319 33.74459 10768 ft 330 kts 106°
2026-05-06 13:01 34.62964 33.77261 11060 ft 348 kts 88°
2026-05-06 13:01 34.63328 33.80215 11335 ft 365 kts 71°
2026-05-06 13:01 34.64395 33.83041 11569 ft 381 kts 57°
2026-05-06 13:01 34.65755 33.85878 12075 ft 392 kts 61°
2026-05-06 13:02 34.66950 33.88884 12766 ft 398 kts 63°
2026-05-06 13:02 34.68090 33.91969 13396 ft 403 kts 65°
2026-05-06 13:02 34.69189 33.95099 14058 ft 408 kts 65°
2026-05-06 13:02 34.70280 33.98305 14735 ft 412 kts 66°
2026-05-06 13:03 34.71468 34.01485 15292 ft 416 kts 58°
2026-05-06 13:03 34.73090 34.04369 15917 ft 415 kts 47°
2026-05-06 13:03 34.75132 34.06860 16482 ft 416 kts 37°
2026-05-06 13:03 34.77495 34.08832 17096 ft 414 kts 26°
2026-05-06 13:04 34.80121 34.10254 17634 ft 414 kts 15°
2026-05-06 13:04 34.82887 34.11060 18156 ft 414 kts
2026-05-06 13:04 34.85755 34.11451 18678 ft 416 kts
2026-05-06 13:04 34.88649 34.11791 19170 ft 419 kts
2026-05-06 13:05 34.91575 34.12096 19705 ft 422 kts
2026-05-06 13:05 34.94487 34.12380 20181 ft 425 kts
2026-05-06 13:05 34.97435 34.12614 20683 ft 427 kts 360°
2026-05-06 13:05 35.00441 34.12817 21206 ft 430 kts 360°
2026-05-06 13:06 35.03437 34.13017 21685 ft 433 kts 360°
2026-05-06 13:06 35.06432 34.13216 22200 ft 435 kts 360°
2026-05-06 13:06 35.09472 34.13417 22688 ft 438 kts 360°
2026-05-06 13:06 35.12510 34.13617 23145 ft 441 kts 359°
2026-05-06 13:07 35.15590 34.13818 23612 ft 443 kts 359°
2026-05-06 13:07 35.18709 34.14022 24054 ft 446 kts 359°
2026-05-06 13:07 35.21781 34.14224 24494 ft 449 kts 359°
2026-05-06 13:07 35.24917 34.14429 24885 ft 452 kts 359°
2026-05-06 13:08 35.28089 34.14638 25319 ft 455 kts 359°
2026-05-06 13:08 35.31241 34.14845 25691 ft 458 kts 359°
2026-05-06 13:08 35.34413 34.15053 26080 ft 460 kts 359°
2026-05-06 13:08 35.37637 34.15265 26476 ft 462 kts 359°
2026-05-06 13:09 35.40840 34.15476 26830 ft 465 kts 359°
2026-05-06 13:09 35.44117 34.15691 27165 ft 468 kts 359°
2026-05-06 13:09 35.47363 34.15906 27536 ft 470 kts 359°
2026-05-06 13:09 35.50655 34.16123 27867 ft 472 kts 359°
2026-05-06 13:10 35.53953 34.16341 28234 ft 474 kts 359°
2026-05-06 13:10 35.57272 34.16559 28531 ft 477 kts 359°
2026-05-06 13:10 35.60562 34.16777 28992 ft 476 kts 359°
2026-05-06 13:10 35.63892 34.16990 29412 ft 476 kts 357°
2026-05-06 13:11 35.67188 34.16811 29876 ft 469 kts 348°
2026-05-06 13:11 35.70349 34.15998 30274 ft 463 kts 339°
2026-05-06 13:11 35.73319 34.14584 30639 ft 458 kts 330°
2026-05-06 13:11 35.76126 34.12712 31030 ft 455 kts 327°
2026-05-06 13:12 35.78879 34.10794 31383 ft 454 kts 327°
2026-05-06 13:12 35.81636 34.08834 31682 ft 454 kts 326°
2026-05-06 13:12 35.84346 34.06880 32059 ft 452 kts 326°
2026-05-06 13:12 35.87073 34.04895 32316 ft 453 kts 326°
2026-05-06 13:13 35.89761 34.02924 32621 ft 453 kts 326°
2026-05-06 13:13 35.92459 34.00930 33000 ft 450 kts 325°
2026-05-06 13:13 35.95161 33.98901 33232 ft 451 kts 325°
2026-05-06 13:13 35.97807 33.96909 33501 ft 450 kts 325°
2026-05-06 13:14 36.00515 33.94869 33821 ft 449 kts 325°
2026-05-06 13:14 36.03170 33.92865 34056 ft 449 kts 325°
2026-05-06 13:14 36.05799 33.90877 34334 ft 446 kts 325°
2026-05-06 13:14 36.08464 33.88861 34517 ft 447 kts 325°
2026-05-06 13:15 36.11122 33.86848 34747 ft 445 kts 325°
2026-05-06 13:15 36.13780 33.84833 34937 ft 445 kts 325°
2026-05-06 13:15 36.16440 33.82835 35050 ft 447 kts 327°
2026-05-06 13:16 36.22309 33.80158 35062 ft 453 kts 346°
2026-05-06 13:16 36.28656 33.80019 35069 ft 465 kts
2026-05-06 13:17 36.34899 33.82487 35082 ft 478 kts 23°
2026-05-06 13:17 36.40482 33.87152 35085 ft 484 kts 32°
2026-05-06 13:18 36.45960 33.91969 35087 ft 482 kts 31°
2026-05-06 13:18 36.51508 33.96728 35089 ft 482 kts 30°
2026-05-06 13:19 36.57032 34.01426 35088 ft 482 kts 30°
2026-05-06 13:19 36.62598 34.06148 35097 ft 481 kts 30°
2026-05-06 13:20 36.68158 34.10867 35098 ft 482 kts 30°
2026-05-06 13:20 36.73711 34.15587 35103 ft 482 kts 30°
2026-05-06 13:21 36.79229 34.20286 35098 ft 481 kts 30°
2026-05-06 13:21 36.84785 34.25025 35092 ft 481 kts 30°
2026-05-06 13:22 36.90298 34.29735 35087 ft 481 kts 30°
2026-05-06 13:22 36.95813 34.34455 35093 ft 481 kts 30°
2026-05-06 13:23 37.01364 34.39214 35094 ft 481 kts 30°
2026-05-06 13:23 37.06852 34.43928 35081 ft 481 kts 30°
2026-05-06 13:24 37.12424 34.48723 35080 ft 481 kts 30°
2026-05-06 13:24 37.17963 34.53498 35076 ft 481 kts 30°
2026-05-06 13:25 37.23477 34.58261 35078 ft 481 kts 30°
2026-05-06 13:25 37.28984 34.63026 35072 ft 480 kts 30°
2026-05-06 13:26 37.34516 34.67820 35078 ft 481 kts 30°
2026-05-06 13:26 37.40031 34.72609 35079 ft 481 kts 30°
2026-05-06 13:27 37.45536 34.77398 35075 ft 481 kts 30°
2026-05-06 13:27 37.51056 34.82209 35072 ft 480 kts 30°
2026-05-06 13:28 37.56559 34.87014 35076 ft 480 kts 30°
2026-05-06 13:28 37.62050 34.91816 35076 ft 481 kts 30°
2026-05-06 13:29 37.67542 34.96630 35084 ft 479 kts 30°
2026-05-06 13:29 37.73005 35.01425 35085 ft 481 kts 30°
2026-05-06 13:30 37.78532 35.06287 35079 ft 479 kts 30°
2026-05-06 13:30 37.83961 35.11071 35065 ft 478 kts 30°
2026-05-06 13:31 37.89428 35.15897 35047 ft 479 kts 30°
2026-05-06 13:31 37.94887 35.20725 35044 ft 480 kts 30°
2026-05-06 13:32 38.00376 35.25589 35026 ft 478 kts 30°
2026-05-06 13:32 38.03108 35.28012 35138 ft 480 kts 30°
2026-05-06 13:32 38.05828 35.30427 35036 ft 479 kts 30°
2026-05-06 13:33 38.11301 35.35295 35065 ft 478 kts 30°
2026-05-06 13:33 38.16794 35.40190 35080 ft 480 kts 30°
2026-05-06 13:34 38.22254 35.45064 35082 ft 479 kts 30°
2026-05-06 13:34 38.27762 35.49990 35071 ft 481 kts 30°
2026-05-06 13:35 38.33277 35.54936 35062 ft 479 kts 30°
2026-05-06 13:35 38.38734 35.59846 35065 ft 480 kts 30°
2026-05-06 13:36 38.44221 35.64794 35070 ft 480 kts 30°
2026-05-06 13:36 38.49709 35.69751 35063 ft 480 kts 31°
2026-05-06 13:37 38.55164 35.74688 35070 ft 481 kts 31°
2026-05-06 13:37 38.60657 35.79670 35059 ft 480 kts 31°
2026-05-06 13:38 38.66124 35.84635 35070 ft 482 kts 31°
2026-05-06 13:38 38.71606 35.89627 35062 ft 482 kts 31°
2026-05-06 13:39 38.77036 35.94580 35065 ft 478 kts 31°
2026-05-06 13:39 38.82516 35.99585 35055 ft 482 kts 31°
2026-05-06 13:40 38.87997 36.04603 35065 ft 482 kts 31°
2026-05-06 13:40 38.93472 36.09625 35066 ft 482 kts 32°
2026-05-06 13:41 38.98938 36.14649 35060 ft 482 kts 32°
2026-05-06 13:41 39.04415 36.19693 35058 ft 480 kts 32°
2026-05-06 13:42 39.09840 36.24699 35056 ft 479 kts 32°
2026-05-06 13:42 39.15344 36.29785 35066 ft 481 kts 32°
2026-05-06 13:43 39.20755 36.34798 35067 ft 480 kts 32°
2026-05-06 13:43 39.26196 36.39848 35075 ft 480 kts 32°
2026-05-06 13:44 39.31622 36.44893 35072 ft 480 kts 32°
2026-05-06 13:44 39.37017 36.49920 35060 ft 479 kts 32°
2026-05-06 13:45 39.42425 36.54968 35070 ft 480 kts 32°
2026-05-06 13:45 39.50535 36.62557 35070 ft 480 kts 32°
2026-05-06 13:46 39.55940 36.67627 35072 ft 479 kts 33°
2026-05-06 13:46 39.61378 36.72738 35067 ft 480 kts 33°
2026-05-06 13:47 39.66763 36.77810 35069 ft 480 kts 33°
2026-05-06 13:47 39.72187 36.82904 35066 ft 477 kts 31°
2026-05-06 13:48 39.78099 36.86526 35082 ft 471 kts 13°
2026-05-06 13:48 39.84561 36.87519 35091 ft 464 kts 354°
2026-05-06 13:49 39.90937 36.86427 35069 ft 462 kts 349°
2026-05-06 13:49 39.97295 36.85086 35070 ft 463 kts 348°
2026-05-06 13:50 40.03641 36.83677 35067 ft 463 kts 348°
2026-05-06 13:50 40.09980 36.82239 35064 ft 462 kts 348°
2026-05-06 13:51 40.16345 36.80782 35064 ft 462 kts 348°
2026-05-06 13:51 40.22689 36.79321 35075 ft 462 kts 348°
2026-05-06 13:52 40.29034 36.77852 35071 ft 461 kts 348°
2026-05-06 13:52 40.35365 36.76384 35076 ft 461 kts 348°
2026-05-06 13:53 40.41686 36.74915 35084 ft 461 kts 348°
2026-05-06 13:53 40.48024 36.73439 35068 ft 462 kts 348°
2026-05-06 13:54 40.54367 36.71960 35076 ft 462 kts 348°
2026-05-06 13:54 40.60695 36.70482 35076 ft 462 kts 349°
2026-05-06 13:55 40.67065 36.68990 35076 ft 462 kts 349°
2026-05-06 13:55 40.73377 36.67510 35081 ft 461 kts 349°
2026-05-06 13:56 40.79687 36.66026 35082 ft 462 kts 349°
2026-05-06 13:56 40.86081 36.64516 35083 ft 462 kts 349°
2026-05-06 13:57 40.92413 36.63018 35088 ft 462 kts 349°
2026-05-06 13:57 40.98730 36.61521 35091 ft 462 kts 349°
2026-05-06 13:58 41.05075 36.60014 35093 ft 462 kts 349°
2026-05-06 13:58 41.11421 36.58504 35103 ft 461 kts 349°
2026-05-06 13:59 41.17770 36.56990 35101 ft 461 kts 349°
2026-05-06 13:59 41.24153 36.56300 35115 ft 463 kts
2026-05-06 14:00 41.30423 36.58312 35113 ft 465 kts 23°
2026-05-06 14:00 41.36118 36.62366 35104 ft 467 kts 28°
2026-05-06 14:01 41.41762 36.66642 35103 ft 466 kts 29°
2026-05-06 14:01 41.47353 36.70937 35103 ft 466 kts 29°
2026-05-06 14:02 41.52970 36.75279 35108 ft 466 kts 30°
2026-05-06 14:02 41.58564 36.79621 35109 ft 466 kts 30°
2026-05-06 14:03 41.64168 36.83981 35110 ft 466 kts 30°
2026-05-06 14:03 41.69740 36.88327 35106 ft 466 kts 30°
2026-05-06 14:04 41.75321 36.92688 35111 ft 466 kts 30°
2026-05-06 14:04 41.80939 36.97087 35110 ft 466 kts 30°
2026-05-06 14:05 41.86561 37.01500 35109 ft 467 kts 30°
2026-05-06 14:05 41.92130 37.05875 35111 ft 467 kts 30°
2026-05-06 14:06 41.97734 37.10276 35110 ft 468 kts 30°
2026-05-06 14:06 42.03347 37.14693 35108 ft 467 kts 30°
2026-05-06 14:07 42.08956 37.19116 35109 ft 466 kts 30°
2026-05-06 14:07 42.14536 37.23526 35113 ft 467 kts 30°
2026-05-06 14:08 42.20118 37.27946 35107 ft 466 kts 30°
2026-05-06 14:08 42.25617 37.32310 35109 ft 466 kts 31°
2026-05-06 14:09 42.31166 37.36723 35108 ft 467 kts 31°
2026-05-06 14:09 42.36752 37.41173 35109 ft 467 kts 31°
2026-05-06 14:10 42.42317 37.45617 35105 ft 466 kts 31°
2026-05-06 14:10 42.47901 37.50084 35255 ft 467 kts 31°
2026-05-06 14:11 42.50691 37.52320 35568 ft 464 kts 31°
2026-05-06 14:11 42.53470 37.54551 35667 ft 466 kts 31°
2026-05-06 14:11 42.56241 37.56775 35879 ft 464 kts 31°
2026-05-06 14:11 42.59023 37.59012 35972 ft 466 kts 31°
2026-05-06 14:12 42.61812 37.61255 36084 ft 467 kts 31°
2026-05-06 14:12 42.64605 37.63506 36237 ft 467 kts 31°
2026-05-06 14:12 42.67383 37.65747 36338 ft 468 kts 32°
2026-05-06 14:12 42.70127 37.68098 36475 ft 467 kts 35°
2026-05-06 14:13 42.72808 37.70587 36579 ft 467 kts 35°
2026-05-06 14:13 42.75495 37.73065 36679 ft 468 kts 35°
2026-05-06 14:13 42.78184 37.75545 36824 ft 467 kts 35°
2026-05-06 14:13 42.80843 37.77998 36907 ft 468 kts 35°
2026-05-06 14:14 42.86244 37.82988 37093 ft 466 kts 35°
2026-05-06 14:14 42.91575 37.87922 37116 ft 464 kts 35°
2026-05-06 14:15 42.96903 37.92862 37113 ft 465 kts 35°
2026-05-06 14:15 43.02253 37.97834 37117 ft 466 kts 35°
2026-05-06 14:16 43.07610 38.02794 37122 ft 467 kts 35°
2026-05-06 14:16 43.12995 38.07784 37122 ft 466 kts 35°
2026-05-06 14:17 43.18333 38.12742 37112 ft 465 kts 35°
2026-05-06 14:17 43.23671 38.17710 37114 ft 464 kts 35°
2026-05-06 14:18 43.28973 38.22655 37116 ft 463 kts 35°
2026-05-06 14:18 43.34307 38.27642 37112 ft 465 kts 35°
2026-05-06 14:19 43.39596 38.32631 37104 ft 464 kts 35°
2026-05-06 14:19 43.44891 38.37676 37116 ft 465 kts 35°
2026-05-06 14:20 43.50224 38.42765 37115 ft 464 kts 35°
2026-05-06 14:20 43.55476 38.47789 37106 ft 463 kts 36°
2026-05-06 14:21 43.60779 38.52816 37111 ft 464 kts 34°
2026-05-06 14:21 43.66151 38.57795 37111 ft 463 kts 34°
2026-05-06 14:22 43.71452 38.62723 37107 ft 463 kts 34°
2026-05-06 14:22 43.76798 38.67705 37103 ft 463 kts 35°
2026-05-06 14:23 43.82128 38.72683 37119 ft 463 kts 35°
2026-05-06 14:23 43.87454 38.77669 37115 ft 462 kts 35°
2026-05-06 14:24 43.92746 38.82633 37114 ft 463 kts 35°
2026-05-06 14:24 43.98048 38.87623 37116 ft 462 kts 35°
2026-05-06 14:25 44.03393 38.92663 37102 ft 461 kts 35°
2026-05-06 14:25 44.08671 38.97652 37105 ft 461 kts 35°
2026-05-06 14:26 44.13927 39.02709 37096 ft 461 kts 39°
2026-05-06 14:26 44.18903 39.08441 37095 ft 462 kts 40°
2026-05-06 14:27 44.23809 39.14143 37086 ft 462 kts 40°
2026-05-06 14:27 44.28722 39.19877 37093 ft 461 kts 40°
2026-05-06 14:28 44.33666 39.25665 37082 ft 462 kts 40°
2026-05-06 14:28 44.38578 39.31430 37080 ft 462 kts 41°
2026-05-06 14:29 44.43486 39.37204 37074 ft 462 kts 40°
2026-05-06 14:29 44.48418 39.43005 37079 ft 461 kts 39°
2026-05-06 14:30 44.53949 39.47426 37079 ft 464 kts 20°
2026-05-06 14:30 44.60260 39.49433 37078 ft 466 kts 10°
2026-05-06 14:31 44.66680 39.50946 37065 ft 465 kts 10°
2026-05-06 14:31 44.73078 39.52409 37068 ft 465 kts 10°
2026-05-06 14:32 44.79452 39.53850 37063 ft 466 kts
2026-05-06 14:32 44.85842 39.55290 37053 ft 466 kts 10°
2026-05-06 14:33 44.92208 39.56726 37063 ft 466 kts
2026-05-06 14:33 44.98567 39.58546 37056 ft 463 kts 15°
2026-05-06 14:34 45.04827 39.60881 37054 ft 464 kts 15°
2026-05-06 14:34 45.11046 39.63214 37049 ft 464 kts 15°
2026-05-06 14:35 45.17313 39.65578 37055 ft 465 kts 16°
2026-05-06 14:35 45.23620 39.67849 37054 ft 465 kts 13°
2026-05-06 14:36 45.29912 39.69670 37055 ft 465 kts 13°
2026-05-06 14:36 45.36250 39.71530 37051 ft 463 kts 13°
2026-05-06 14:37 45.42539 39.73383 37050 ft 463 kts 13°
2026-05-06 14:37 45.48841 39.75245 37055 ft 463 kts 13°
2026-05-06 14:38 45.55128 39.77234 37050 ft 463 kts 14°
2026-05-06 14:38 45.61391 39.79284 37052 ft 464 kts 14°
2026-05-06 14:39 45.67699 39.81353 37051 ft 464 kts 14°
2026-05-06 14:39 45.73995 39.83422 37054 ft 464 kts 14°
2026-05-06 14:40 45.80255 39.85484 37054 ft 463 kts 14°
2026-05-06 14:40 45.86571 39.87540 37051 ft 463 kts 14°
2026-05-06 14:41 45.92900 39.89584 37051 ft 463 kts 14°
2026-05-06 14:41 45.99163 39.91611 37050 ft 463 kts 14°
2026-05-06 14:42 46.05434 39.93645 37055 ft 463 kts 14°
2026-05-06 14:42 46.11734 39.95694 37046 ft 463 kts 14°
2026-05-06 14:43 46.18047 39.97752 37059 ft 463 kts 14°
2026-05-06 14:43 46.24303 39.99796 37049 ft 461 kts 14°
2026-05-06 14:44 46.30592 40.01855 37045 ft 462 kts 14°
2026-05-06 14:45 46.39989 40.04942 37040 ft 461 kts 14°
2026-05-06 14:45 46.46253 40.07005 37047 ft 462 kts 14°
2026-05-06 14:46 46.52518 40.08957 37045 ft 462 kts
2026-05-06 14:46 46.58939 40.09288 37049 ft 463 kts
2026-05-06 14:47 46.65371 40.09357 37044 ft 463 kts
2026-05-06 14:47 46.71837 40.09399 37033 ft 463 kts
2026-05-06 14:48 46.78244 40.09432 37037 ft 463 kts
2026-05-06 14:48 46.84711 40.09460 37048 ft 464 kts
2026-05-06 14:49 46.91142 40.09488 37035 ft 463 kts
2026-05-06 14:49 46.97586 40.09515 37034 ft 462 kts
2026-05-06 14:50 47.03994 40.09541 37033 ft 462 kts
2026-05-06 14:50 47.10450 40.09568 37033 ft 462 kts
2026-05-06 14:51 47.16949 40.09599 37021 ft 462 kts
2026-05-06 14:51 47.23369 40.09635 37021 ft 461 kts
2026-05-06 14:52 47.29740 40.09670 37024 ft 462 kts
2026-05-06 14:52 47.36183 40.09706 37216 ft 462 kts
2026-05-06 14:53 47.42618 40.09742 37238 ft 463 kts
2026-05-06 14:53 47.45820 40.09760 37359 ft 463 kts
2026-05-06 14:53 47.49029 40.09778 37443 ft 463 kts
2026-05-06 14:53 47.52260 40.09796 37552 ft 463 kts
2026-05-06 14:54 47.55510 40.09815 37629 ft 464 kts
2026-05-06 14:54 47.61957 40.09850 37815 ft 464 kts
2026-05-06 14:55 47.68387 40.09886 37963 ft 463 kts
2026-05-06 14:55 47.74849 40.09922 37981 ft 464 kts
2026-05-06 14:56 47.81295 40.09958 38030 ft 462 kts
2026-05-06 14:56 47.87689 40.10075 38026 ft 459 kts
2026-05-06 14:57 47.93980 40.11663 38019 ft 459 kts 12°
2026-05-06 14:57 48.00230 40.13463 38024 ft 459 kts 12°
2026-05-06 14:58 48.06506 40.15301 38022 ft 459 kts 12°
2026-05-06 14:58 48.12837 40.16795 38019 ft 458 kts
2026-05-06 14:59 48.19161 40.18084 38022 ft 458 kts
2026-05-06 14:59 48.25481 40.19384 38017 ft 459 kts
2026-05-06 15:00 48.31762 40.20681 38016 ft 459 kts
2026-05-06 15:00 48.38103 40.21995 38007 ft 459 kts
2026-05-06 15:01 48.44414 40.23307 38007 ft 459 kts
2026-05-06 15:01 48.50710 40.24618 38004 ft 457 kts
2026-05-06 15:02 48.56999 40.25932 38005 ft 457 kts
2026-05-06 15:02 48.63309 40.27252 37986 ft 457 kts
2026-05-06 15:03 48.69588 40.28569 38002 ft 457 kts
2026-05-06 15:03 48.75904 40.29898 37993 ft 457 kts
2026-05-06 15:04 48.82169 40.31218 37994 ft 458 kts
2026-05-06 15:04 48.88471 40.32550 37995 ft 457 kts
2026-05-06 15:05 48.94780 40.33890 37986 ft 457 kts
2026-05-06 15:05 49.01057 40.35228 38004 ft 457 kts
2026-05-06 15:06 49.07320 40.36565 37968 ft 456 kts
2026-05-06 15:06 49.13626 40.37917 38003 ft 456 kts
2026-05-06 15:07 49.19916 40.39267 37990 ft 456 kts
2026-05-06 15:07 49.26199 40.40620 37987 ft 456 kts
2026-05-06 15:08 49.32475 40.41974 37998 ft 456 kts
2026-05-06 15:08 49.38739 40.43329 37995 ft 456 kts
2026-05-06 15:09 49.45003 40.44688 37973 ft 454 kts
2026-05-06 15:09 49.51223 40.46041 37975 ft 454 kts
2026-05-06 15:10 49.57531 40.46747 37975 ft 456 kts
2026-05-06 15:10 49.63856 40.47198 37968 ft 456 kts
2026-05-06 15:11 49.70178 40.47635 37979 ft 457 kts
2026-05-06 15:11 49.76523 40.48070 37963 ft 455 kts
2026-05-06 15:12 49.82824 40.48502 37970 ft 456 kts
2026-05-06 15:12 49.89149 40.48935 37972 ft 454 kts
2026-05-06 15:13 49.95457 40.49368 37973 ft 454 kts
2026-05-06 15:13 50.01765 40.49801 37964 ft 454 kts
2026-05-06 15:14 50.07978 40.50972 37975 ft 452 kts 17°
2026-05-06 15:14 50.14006 40.53839 37962 ft 453 kts 18°
2026-05-06 15:15 50.20037 40.56779 37967 ft 454 kts 18°
2026-05-06 15:15 50.26065 40.59754 37970 ft 455 kts 18°
2026-05-06 15:16 50.32081 40.62741 37966 ft 454 kts 18°
2026-05-06 15:16 50.38119 40.65752 37963 ft 456 kts 19°
2026-05-06 15:17 50.44221 40.68805 37963 ft 457 kts 19°
2026-05-06 15:17 50.50225 40.71816 37971 ft 457 kts 19°
2026-05-06 15:18 50.56283 40.74863 37970 ft 458 kts 19°
2026-05-06 15:18 50.62349 40.77926 37970 ft 458 kts 19°
2026-05-06 15:19 50.68424 40.81005 37967 ft 458 kts 19°
2026-05-06 15:19 50.74497 40.84091 37973 ft 460 kts 19°
2026-05-06 15:20 50.80542 40.87171 37975 ft 460 kts 18°
2026-05-06 15:20 50.86801 40.89184 37986 ft 461 kts
2026-05-06 15:21 50.93185 40.88269 37983 ft 462 kts 352°
2026-05-06 15:21 50.99514 40.86778 37970 ft 463 kts 352°
2026-05-06 15:22 51.05868 40.85218 37971 ft 462 kts 352°
2026-05-06 15:22 51.12234 40.83626 37968 ft 462 kts 352°
2026-05-06 15:23 51.18568 40.82029 37965 ft 463 kts 352°
2026-05-06 15:23 51.24943 40.80414 37962 ft 464 kts 352°
2026-05-06 15:24 51.31284 40.78802 37949 ft 465 kts 352°
2026-05-06 15:24 51.37648 40.77177 37954 ft 465 kts 352°
2026-05-06 15:25 51.44089 40.75530 37947 ft 467 kts 352°
2026-05-06 15:25 51.47430 40.74673 37944 ft 467 kts 352°
2026-05-06 15:26 51.53113 40.73214 37943 ft 467 kts 352°
2026-05-06 15:26 51.59569 40.71550 37942 ft 468 kts 352°
2026-05-06 15:27 51.65966 40.69897 37944 ft 469 kts 352°
2026-05-06 15:27 51.72397 40.68229 37939 ft 470 kts 351°
2026-05-06 15:28 51.78878 40.66540 37931 ft 470 kts 352°
2026-05-06 15:28 51.85359 40.64846 37925 ft 471 kts 351°
2026-05-06 15:29 51.91843 40.63151 37924 ft 471 kts 351°
2026-05-06 15:29 51.98330 40.61451 37930 ft 470 kts 351°
2026-05-06 15:30 52.04784 40.59754 37916 ft 469 kts 351°
2026-05-06 15:30 52.11208 40.58059 37918 ft 469 kts 351°
2026-05-06 15:31 52.17730 40.56334 37916 ft 470 kts 351°
2026-05-06 15:31 52.24187 40.54621 37918 ft 469 kts 351°
2026-05-06 15:32 52.33850 40.52050 37917 ft 470 kts 351°
2026-05-06 15:32 52.40321 40.50321 37913 ft 469 kts 351°
2026-05-06 15:33 52.46787 40.48548 37912 ft 469 kts 348°
2026-05-06 15:33 52.52879 40.44740 37929 ft 468 kts 332°
2026-05-06 15:34 52.58546 40.39583 37915 ft 468 kts 331°
2026-05-06 15:34 52.64230 40.34320 37913 ft 468 kts 330°
2026-05-06 15:35 52.69933 40.28986 37917 ft 469 kts 330°
2026-05-06 15:35 52.75645 40.23612 37921 ft 470 kts 330°
2026-05-06 15:36 52.81296 40.18272 37923 ft 469 kts 330°
2026-05-06 15:36 52.87007 40.12858 37923 ft 469 kts 330°
2026-05-06 15:37 52.92621 40.07520 37915 ft 468 kts 330°
2026-05-06 15:37 52.98288 40.02115 37918 ft 468 kts 330°
2026-05-06 15:38 53.03970 39.96680 37910 ft 469 kts 330°
2026-05-06 15:38 53.09615 39.91263 37911 ft 469 kts 330°
2026-05-06 15:39 53.15319 39.85772 37913 ft 469 kts 330°
2026-05-06 15:39 53.20937 39.80348 37906 ft 468 kts 330°
2026-05-06 15:40 53.26611 39.74853 37898 ft 468 kts 330°
2026-05-06 15:40 53.32250 39.69376 37897 ft 467 kts 330°
2026-05-06 15:41 53.37854 39.63914 37901 ft 466 kts 330°
2026-05-06 15:41 53.43530 39.58622 37900 ft 465 kts 334°
2026-05-06 15:42 53.49301 39.53779 37898 ft 466 kts 333°
2026-05-06 15:42 53.55112 39.48860 37901 ft 466 kts 333°
2026-05-06 15:43 53.60940 39.43906 37903 ft 465 kts 333°
2026-05-06 15:43 53.66728 39.38969 37900 ft 465 kts 333°
2026-05-06 15:44 53.72513 39.34020 37901 ft 463 kts 332°
2026-05-06 15:44 53.78209 39.29130 37903 ft 463 kts 332°
2026-05-06 15:45 53.83968 39.24172 37900 ft 464 kts 332°
2026-05-06 15:45 53.89751 39.19173 37495 ft 470 kts 332°
2026-05-06 15:46 53.92608 39.16696 36896 ft 461 kts 332°
2026-05-06 15:46 53.95420 39.14255 36376 ft 450 kts 332°
2026-05-06 15:46 53.98200 39.11837 35896 ft 443 kts 333°
2026-05-06 15:46 54.00922 39.09466 35412 ft 444 kts 333°
2026-05-06 15:47 54.03699 39.07044 34902 ft 450 kts 333°
2026-05-06 15:47 54.06479 39.04615 34303 ft 452 kts 333°
2026-05-06 15:47 54.09249 39.02193 33710 ft 452 kts 333°
2026-05-06 15:47 54.12056 38.99734 33141 ft 452 kts 333°
2026-05-06 15:48 54.14857 38.97276 32586 ft 453 kts 333°
2026-05-06 15:48 54.17677 38.94799 32043 ft 456 kts 333°
2026-05-06 15:48 54.20334 38.92460 31534 ft 458 kts 333°
2026-05-06 15:48 54.22974 38.90135 31055 ft 458 kts 333°
2026-05-06 15:49 54.25816 38.87701 30379 ft 462 kts 334°
2026-05-06 15:49 54.28702 38.85252 29566 ft 466 kts 334°
2026-05-06 15:49 54.31606 38.82779 28920 ft 461 kts 334°
2026-05-06 15:49 54.34423 38.80375 28920 ft 443 kts 334°
2026-05-06 15:50 54.37120 38.78070 28840 ft 422 kts 334°
2026-05-06 15:50 54.39706 38.75857 28518 ft 401 kts 334°
2026-05-06 15:50 54.42178 38.73739 27590 ft 398 kts 334°
2026-05-06 15:50 54.44634 38.71632 26766 ft 390 kts 333°
2026-05-06 15:51 54.47007 38.69593 26268 ft 385 kts 333°
2026-05-06 15:51 54.49398 38.67535 25897 ft 378 kts 333°
2026-05-06 15:51 54.51731 38.65522 25896 ft 373 kts 333°
2026-05-06 15:51 54.54083 38.63490 25903 ft 385 kts 333°
2026-05-06 15:52 54.56487 38.61411 25900 ft 391 kts 333°
2026-05-06 15:52 54.58907 38.59316 25888 ft 387 kts 333°
2026-05-06 15:52 54.61321 38.57223 25890 ft 384 kts 333°
2026-05-06 15:52 54.63707 38.55152 25893 ft 385 kts 333°
2026-05-06 15:53 54.66111 38.53062 25897 ft 388 kts 333°
2026-05-06 15:53 54.68505 38.50979 25895 ft 386 kts 333°
2026-05-06 15:53 54.70925 38.48869 25899 ft 386 kts 333°
2026-05-06 15:53 54.73301 38.46796 25901 ft 387 kts 333°
2026-05-06 15:54 54.75722 38.44699 25895 ft 386 kts 333°
2026-05-06 15:54 54.78100 38.42638 25895 ft 385 kts 333°
2026-05-06 15:54 54.80533 38.40526 25897 ft 385 kts 333°
2026-05-06 15:54 54.82916 38.38454 25897 ft 385 kts 333°
2026-05-06 15:55 54.85197 38.36011 25901 ft 384 kts 320°
2026-05-06 15:55 54.87145 38.32797 25772 ft 387 kts 314°
2026-05-06 15:55 54.89059 38.29438 25601 ft 385 kts 314°
2026-05-06 15:55 54.90919 38.26168 25440 ft 382 kts 314°
2026-05-06 15:56 54.92792 38.22854 25287 ft 380 kts 313°
2026-05-06 15:56 54.94642 38.19567 25150 ft 380 kts 313°
2026-05-06 15:56 54.96495 38.16264 25009 ft 381 kts 313°
2026-05-06 15:56 54.98343 38.12952 24591 ft 386 kts 313°
2026-05-06 15:57 55.00214 38.09592 24049 ft 384 kts 313°
2026-05-06 15:57 55.02072 38.06251 23546 ft 380 kts 313°
2026-05-06 15:57 55.03872 38.03006 23104 ft 375 kts 313°
2026-05-06 15:57 55.05685 37.99735 22689 ft 369 kts 312°
2026-05-06 15:58 55.07453 37.96539 22204 ft 366 kts 312°
2026-05-06 15:58 55.09206 37.93366 21745 ft 361 kts 312°
2026-05-06 15:58 55.10939 37.90224 21327 ft 356 kts 312°
2026-05-06 15:58 55.12665 37.87094 20860 ft 351 kts 312°
2026-05-06 15:59 55.14367 37.84002 20430 ft 349 kts 312°
2026-05-06 15:59 55.16050 37.80952 20014 ft 349 kts 314°
2026-05-06 15:59 55.17906 37.78308 19876 ft 344 kts 322°
2026-05-06 15:59 55.19848 37.75829 19894 ft 347 kts 321°
2026-05-06 16:00 55.21898 37.73455 19899 ft 350 kts 332°
2026-05-06 16:00 55.24185 37.72134 19898 ft 340 kts 349°
2026-05-06 16:00 55.26498 37.71995 19853 ft 329 kts 356°
2026-05-06 16:00 55.28718 37.71484 19658 ft 323 kts 339°
2026-05-06 16:01 55.30732 37.69777 19539 ft 323 kts 321°
2026-05-06 16:01 55.32338 37.67017 19401 ft 321 kts 303°
2026-05-06 16:01 55.33445 37.63661 19256 ft 319 kts 299°
2026-05-06 16:01 55.34710 37.60458 19090 ft 319 kts 308°
2026-05-06 16:02 55.36192 37.57603 18921 ft 317 kts 313°
2026-05-06 16:02 55.37777 37.54928 18760 ft 317 kts 315°
2026-05-06 16:02 55.39426 37.52345 18604 ft 317 kts 317°
2026-05-06 16:02 55.41103 37.49833 18446 ft 317 kts 318°
2026-05-06 16:03 55.42814 37.47344 18288 ft 316 kts 318°
2026-05-06 16:03 55.44501 37.44925 18137 ft 314 kts 319°
2026-05-06 16:03 55.46218 37.42484 17983 ft 313 kts 319°
2026-05-06 16:03 55.47915 37.40083 17836 ft 313 kts 319°
2026-05-06 16:04 55.49656 37.37733 17684 ft 314 kts 326°
2026-05-06 16:04 55.51664 37.36216 17553 ft 319 kts 344°
2026-05-06 16:04 55.53893 37.35784 17157 ft 330 kts 356°
2026-05-06 16:04 55.56187 37.35758 16711 ft 330 kts 356°
2026-05-06 16:05 55.58492 37.35712 16258 ft 329 kts 356°
2026-05-06 16:05 55.60759 37.35678 15816 ft 327 kts 356°
2026-05-06 16:05 55.63041 37.35649 15383 ft 325 kts 356°
2026-05-06 16:05 55.65298 37.35623 14958 ft 323 kts 356°
2026-05-06 16:06 55.67553 37.35598 14546 ft 321 kts 356°
2026-05-06 16:06 55.69783 37.35575 14160 ft 317 kts 356°
2026-05-06 16:06 55.71972 37.35553 13919 ft 309 kts 356°
2026-05-06 16:06 55.74081 37.35431 13681 ft 303 kts 352°
2026-05-06 16:07 55.76210 37.35182 13172 ft 308 kts 352°
2026-05-06 16:07 55.78320 37.34953 12769 ft 306 kts 352°
2026-05-06 16:07 55.80467 37.34721 12354 ft 305 kts 351°
2026-05-06 16:07 55.82371 37.34516 11987 ft 304 kts 351°
2026-05-06 16:08 55.84463 37.34287 11617 ft 301 kts 351°
2026-05-06 16:08 55.86551 37.34058 11309 ft 297 kts 351°
2026-05-06 16:08 55.88584 37.33834 11028 ft 291 kts 351°
2026-05-06 16:08 55.90533 37.33619 10786 ft 286 kts 351°
2026-05-06 16:09 55.92523 37.33400 10584 ft 282 kts 351°
2026-05-06 16:09 55.94494 37.33179 10373 ft 286 kts 351°
2026-05-06 16:09 55.96510 37.32952 9947 ft 292 kts 351°
2026-05-06 16:09 55.98461 37.32901 9792 ft 274 kts 356°
2026-05-06 16:10 56.00370 37.32999 9453 ft 278 kts 354°
2026-05-06 16:10 56.02325 37.33069 9004 ft 281 kts 355°
2026-05-06 16:10 56.04292 37.33159 8523 ft 285 kts 355°
2026-05-06 16:10 56.06304 37.33259 8068 ft 288 kts 355°
2026-05-06 16:11 56.08322 37.33363 7608 ft 291 kts 356°
2026-05-06 16:11 56.10345 37.33473 7364 ft 284 kts 356°
2026-05-06 16:11 56.12294 37.33581 7217 ft 276 kts 355°
2026-05-06 16:11 56.14168 37.34132 7036 ft 276 kts 18°
2026-05-06 16:12 56.15729 37.36127 6867 ft 279 kts 47°
2026-05-06 16:12 56.16637 37.39157 6610 ft 280 kts 70°
2026-05-06 16:12 56.17211 37.42507 6318 ft 279 kts 71°
2026-05-06 16:12 56.17764 37.45845 6018 ft 279 kts 72°
2026-05-06 16:13 56.18295 37.49214 5669 ft 280 kts 72°
2026-05-06 16:13 56.18822 37.52634 5189 ft 285 kts 72°
2026-05-06 16:13 56.19178 37.56072 5000 ft 280 kts 90°
2026-05-06 16:13 56.18724 37.59398 4825 ft 271 kts 120°
2026-05-06 16:14 56.17601 37.62094 4552 ft 268 kts 132°
2026-05-06 16:14 56.16359 37.64609 4145 ft 271 kts 132°
2026-05-06 16:14 56.15115 37.67035 4006 ft 262 kts 134°
2026-05-06 16:14 56.13886 37.69373 4001 ft 248 kts 135°
2026-05-06 16:15 56.12723 37.71550 4009 ft 234 kts 135°
2026-05-06 16:15 56.11623 37.73590 4001 ft 222 kts 135°
2026-05-06 16:15 56.10567 37.75532 4022 ft 213 kts 137°
2026-05-06 16:15 56.09329 37.76849 4052 ft 212 kts 174°
2026-05-06 16:16 56.07858 37.76700 3998 ft 214 kts 199°
2026-05-06 16:16 56.06392 37.75957 3709 ft 220 kts 199°
2026-05-06 16:16 56.04932 37.75208 3469 ft 219 kts 199°
2026-05-06 16:16 56.03499 37.74441 3451 ft 207 kts 200°
2026-05-06 16:17 56.02330 37.73246 3435 ft 188 kts 236°
2026-05-06 16:17 56.01761 37.71167 3307 ft 194 kts 255°
2026-05-06 16:17 56.01326 37.68818 3012 ft 200 kts 255°
2026-05-06 16:17 56.00908 37.66394 2590 ft 210 kts 257°
2026-05-06 16:18 56.00510 37.63926 2521 ft 201 kts 258°
2026-05-06 16:18 56.00139 37.61533 2369 ft 196 kts 259°
2026-05-06 16:18 55.99795 37.59259 2329 ft 182 kts 259°
2026-05-06 16:18 55.99479 37.57173 2135 ft 164 kts 260°
2026-05-06 16:19 55.99198 37.55303 1891 ft 149 kts 263°
2026-05-06 16:19 55.98944 37.53605 1677 ft 133 kts 260°
2026-05-06 16:19 55.98714 37.52087 1478 ft 124 kts 263°
2026-05-06 16:19 55.98495 37.50580 1337 ft 131 kts 260°
2026-05-06 16:20 55.98261 37.49014 1203 ft 131 kts 259°
2026-05-06 16:20 55.98013 37.47463 1015 ft 129 kts 260°
2026-05-06 16:20 55.97792 37.45957 833 ft 127 kts 258°
2026-05-06 16:20 55.97572 37.44449 702 ft 129 kts 261°
2026-05-06 16:21 55.97369 37.42989 639 ft 110 kts 258°
2026-05-06 16:21 55.97215 37.41959 638 ft 68 kts 257°
2026-05-06 16:21 55.97146 37.41500 638 ft 20 kts 255°
2026-05-06 16:21 55.97173 37.41355 638 ft 13 kts 336°
2026-05-06 16:22 55.97250 37.41306 638 ft 10 kts 346°
2026-05-06 16:22 55.97322 37.41272 638 ft 10 kts 345°
2026-05-06 16:22 55.97397 37.41235 638 ft 12 kts 345°
2026-05-06 16:22 55.97488 37.41193 638 ft 13 kts 346°
2026-05-06 16:23 55.97500 37.41187 638 ft 0 kts 345°
2026-05-06 16:23 55.97520 37.41177 638 ft 10 kts 345°
2026-05-06 16:23 55.97617 37.41127 638 ft 13 kts 336°
2026-05-06 16:24 55.97662 37.41098 638 ft 5 kts 357°
2026-05-06 16:24 55.97695 37.41106 638 ft 2 kts
2026-05-06 16:24 55.97700 37.41107 638 ft 0 kts